Home > Weather > Yekaterinburg > Past weeks

Flag for Russia Weather for the Past 2 Weeks in Yekaterinburg, Russia

Now
23 °F

Broken clouds.


Feels Like: 18 °F
Forecast: 8 / 19 °F
Wind: 3 mph from Northwest

Location: Ekaterinburg

Current Time: Feb 6, 2016 at 7:00:51 PM

Latest Report: Feb 6, 2016 at 6:30 PM


Visibility: N/A

Pressure: 29.92 "Hg

Humidity: 86%

Dew point: 19 °F

Location of YekaterinburgLocation

Historic Weather in Yekaterinburg — Graph

°F

Yekaterinburg Temperature Yesterday

Maximum temperature yesterday: 34 °F (at 11:00 AM)
Minimum temperature yesterday: 18 °F (at 12:30 AM)
Average temperature yesterday: 30 °F

High & Low Weather Summary for the Past Weeks

 TemperatureHumidityPressure
High34 °F (Feb 5, 11:00 AM)100% (Feb 3, 12:30 AM)30.83 "Hg (Feb 3, 12:30 AM)
Low-31 °F (Jan 29, 6:30 AM)60% (Jan 29, 5:30 AM)29.47 "Hg (Feb 4, 2:00 PM)
Average10 °F82%30.07 "Hg
* Reported Jan 22 6:00 PM — Feb 6 6:00 PM, Yekaterinburg, Weather by CustomWeather, © 2016

Note: Actual official high and low records may vary slightly from our data, if they occured in-between our weather recording intervals... More about our weather records

Advertising

Yekaterinburg Weather History for the Previous 24 Hours

 ConditionsComfort  
Time TempWeatherWind HumidityBarometerVisibility
6:00 PM
Sat, Feb 6
23 °FBroken clouds.6 mph86%29.92 "HgN/A
5:30 PM23 °FBroken clouds.8 mph80%29.92 "HgN/A
5:00 PM25 °FBroken clouds.10 mph74%29.92 "HgN/A
4:30 PM25 °FBroken clouds.8 mph74%29.92 "HgN/A
4:00 PM25 °FBroken clouds.13 mph74%29.92 "HgN/A
3:30 PM25 °FBroken clouds.10 mph69%29.92 "HgN/A
3:00 PM27 °FBroken clouds.10 mph69%29.89 "HgN/A
2:30 PM27 °FBroken clouds.10 mph69%29.89 "HgN/A
2:00 PM27 °FBroken clouds.15 mph64%29.89 "HgN/A
1:30 PM25 °FBroken clouds.8 mph80%29.89 "HgN/A
1:00 PM27 °FSnow flurries. Broken clouds.8 mph86%29.89 "HgN/A
12:30 PM25 °FSnow flurries. Overcast.3 mph93%29.89 "Hg1 mi
12:00 PM25 °FSnow flurries. Mostly cloudy.3 mph86%29.89 "HgN/A
11:30 AM23 °FSnow flurries. Mostly cloudy.1 mph93%29.86 "Hg6 mi
11:00 AM21 °FMore clouds than sun.1 mph93%29.86 "HgN/A
10:30 AM21 °FMore clouds than sun.3 mph93%29.86 "HgN/A
10:00 AM18 °FSnow flurries. Broken clouds.1 mph93%29.86 "HgN/A
9:00 AM16 °FClear.No wind93%29.83 "Hg10 mi
8:30 AM16 °FClear.3 mph86%29.83 "Hg10 mi
7:30 AM18 °FPartly cloudy.6 mph86%29.80 "HgN/A
7:00 AM21 °FPassing clouds.10 mph86%29.80 "HgN/A
6:00 AM25 °FPassing clouds.8 mph86%29.80 "HgN/A
5:30 AM25 °FPassing clouds.3 mph86%29.77 "HgN/A
5:00 AM27 °FPassing clouds.8 mph86%29.77 "HgN/A
4:30 AM25 °FPassing clouds.3 mph86%29.77 "HgN/A
4:00 AM25 °FPassing clouds.8 mph80%29.74 "HgN/A
3:30 AM25 °FPassing clouds.13 mph86%29.74 "HgN/A
3:00 AM27 °FPassing clouds.10 mph86%29.74 "HgN/A
2:30 AM27 °FPassing clouds.8 mph80%29.74 "HgN/A
2:00 AM27 °FPassing clouds.8 mph80%29.71 "HgN/A
1:30 AM28 °FPassing clouds.8 mph80%29.71 "HgN/A
1:00 AM27 °FPassing clouds.8 mph80%29.71 "HgN/A
12:30 AM28 °FPassing clouds.10 mph80%29.68 "HgN/A
12:00 AM28 °FPassing clouds.13 mph86%29.68 "HgN/A
11:30 PM
Fri, Feb 5
30 °FPassing clouds.13 mph86%29.68 "HgN/A
11:00 PM32 °FMostly cloudy.8 mph87%29.68 "HgN/A
10:30 PM32 °FMostly cloudy.10 mph87%29.65 "HgN/A
10:00 PM30 °FOvercast.6 mph93%29.65 "HgN/A
9:30 PM32 °FMostly cloudy.6 mph87%29.65 "HgN/A
9:00 PM32 °FMostly cloudy.8 mph87%29.65 "HgN/A
8:30 PM30 °FMostly cloudy.8 mph93%29.65 "HgN/A
8:00 PM30 °FMostly cloudy.8 mph93%29.65 "HgN/A
7:30 PM27 °FMostly cloudy.8 mph93%29.65 "HgN/A
7:00 PM30 °FClear.8 mph86%29.65 "Hg10 mi
Weather by CustomWeather, © 2016

See weather overviewHow to use our weather pages